Dewpoint
3 4 5 5 4 4 4 5 5 5 6 8 7 6 4 3 2 2 3 3 2 3 3 4 3 4 8 10 11 12 14 13 13 13 12 11 11 13 12 12 12 13 13 13
4 5 4 3 3 4 4 5 4 4 4 7 6 6 4 3 3 2 3 3 3 2 2 3 4 4 5 6 9 10 11 11 13 13 12 12 11 11 12 13 13 13 13 13
4 4 4 4 4 5 4 4 5 6 6 6 5 7 6 4 4 3 3 3 3 3 3 3 3 3 3 4 7 8 10 10 11 12 13 13 13 13 13 13 12 13 13 13
5 4 5 5 5 3 3 2 4 6 8 9 6 7 5 5 5 4 3 3 2 2 1 3 3 3 3 3 3 9 9 10 10 11 12 13 12 11 11 13 12 14 13 12
5 5 6 6 5 4 5 1 5 7 6 7 7 5 2 4 6 4 3 3 2 1 1 2 3 2 3 3 3 3 9 9 9 9 10 10 9 10 11 11 12 12 12 11
5 5 6 6 4 2 2 5 5 4 4 5 6 4 2 4 4 2 2 2 2 1 1 1 1 3 3 1 1 1 4 10 10 9 9 9 9 8 8 10 10 10 11 10
5 4 5 4 3 1 1 2 7 7 4 5 0 2 1 -2 -3 -3 -3 -3 -2 -1 0 1 1 3 3 2 0 -0 -0 0 7 9 9 9 9 8 7 8 10 11 7 -1
6 6 6 5 3 3 2 1 4 6 6 4 -0 2 -0 -4 -4 -4 -5 -5 -4 -4 -3 -2 3 3 3 4 2 -0 -1 -1 -1 1 5 7 9 9 9 6 3 2 -2 -3
7 7 5 4 3 1 2 2 -1 2 0 3 2 -1 -3 -5 -5 -5 -3 -3 -3 -4 -4 -3 -2 3 4 3 3 3 2 1 -0 -0 -1 -0 1 2 2 -1 -2 -2 -2 -3
4 6 5 4 3 1 2 -1 3 2 1 2 2 -0 -1 -3 -1 -2 -2 -2 -2 -3 -3 -4 -4 1 3 3 3 3 3 1 0 0 -0 -1 -1 -1 -2 -2 -2 -2 -2 -2
2 4 6 3 5 4 3 3 3 2 3 5 1 -1 -5 -3 -2 -2 -2 -2 -2 -2 -2 -3 -3 -4 -4 0 2 2 2 2 0 1 1 0 1 1 0 -0 -2 -2 -2 -1
3 3 6 5 5 3 3 3 2 4 3 2 2 -1 -5 -3 -3 -2 -2 -3 -2 -1 -1 -2 -2 -2 -3 -2 -0 1 3 3 2 1 1 1 0 2 2 2 3 2 1 -0
2 4 6 5 3 2 4 3 2 2 3 3 2 -0 -5 -5 -5 -4 -4 -2 -2 -1 -1 -0 -1 -1 -1 -2 -1 0 1 2 3 3 2 1 1 1 0 -0 -1 -0 0 1
1 2 1 3 4 3 4 3 2 2 3 3 3 -0 -3 -2 -1 -1 -0 0 0 0 -0 -1 -1 -0 -0 -0 -1 -1 1 2 3 2 2 1 1 0 0 1 1 1 1 0
2 3 1 2 2 2 2 2 2 3 2 3 1 1 -0 -1 -0 0 0 0 0 -0 -0 -1 -1 -1 1 1 0 -0 0 1 2 2 1 1 1 1 1 1 1 1 1 -1
1 2 1 1 0 1 2 2 1 2 2 2 1 1 -1 -0 -0 0 1 1 1 1 0 -1 -1 -1 -1 -1 2 1 1 1 1 2 1 1 1 1 1 1 1 1 -1 -1
2 1 1 2 -1 -1 1 0 0 1 1 2 3 1 0 -0 -0 -1 -0 -2 -2 -1 0 1 1 1 -0 -1 -1 2 1 1 1 2 1 1 1 1 1 1 1 0 -1 0
2 2 0 0 -0 -0 -2 -3 -3 1 1 0 0 -1 -2 -3 -4 -1 -2 -3 -4 -4 -3 -0 2 2 0 -1 -1 -0 2 2 2 2 1 1 1 1 1 1 1 -1 -0 0
1 2 2 2 1 -1 -0 -1 -1 0 2 -2 -2 -3 -5 -5 -4 -1 -3 -3 -3 -3 -4 -3 2 2 1 0 -1 -0 1 2 2 2 1 1 1 1 1 1 -0 -1 0 0
-1 -1 1 1 2 2 -1 -2 -2 -2 3 -4 -3 -3 -3 -3 -2 -2 -3 -2 -3 -3 -3 -3 1 2 1 0 -1 -0 1 2 2 2 1 1 1 1 1 1 -1 -1 0 -0
1 1 1 1 1 1 -3 -4 -1 1 -0 -3 -2 -2 -2 -2 -3 -2 -2 -2 -3 -2 -2 -3 1 2 2 1 0 -0 1 2 1 2 2 2 1 1 1 -1 -1 -1 -0 -1
1 1 2 2 4 3 -5 -3 0 -2 -2 -2 -2 -2 -2 -2 -2 -2 -2 -1 -1 -1 -2 -3 2 2 2 1 1 1 2 3 3 2 2 2 1 1 0 -1 -1 -1 -1 -1
1 -0 1 0 0 -4 -4 -2 -2 -2 -2 -2 -2 -2 -2 -2 -2 -2 -2 -2 -1 -1 -1 -0 1 2 2 1 1 1 1 1 1 2 2 1 1 1 -1 -1 -1 -1 -1 -1
-1 -4 -0 -1 -3 -4 -2 -2 -2 -2 -2 -2 -2 -2 -2 -2 -1 -2 -2 -2 -2 -1 -1 -0 0 1 2 1 1 1 1 1 1 1 1 1 0 -1 -1 -2 -1 -0 -0 -0
-2 -5 -4 -4 -3 -3 -2 -2 -3 -3 -4 -4 -3 -3 -2 -2 -2 -2 -2 -1 -1 -1 -1 -1 0 0 2 1 1 1 1 1 1 1 0 -0 -1 -2 -2 -2 -1 -1 -0 -0
-5 -5 -4 -5 -2 -3 -2 -2 -3 -5 -5 -6 -4 -4 -4 -3 -2 -2 -2 -2 -1 -2 -2 -2 -0 1 1 1 1 1 0 0 -0 -0 -1 -1 -1 -1 -2 -2 -2 -1 -1 -1
Wind_Speed
2 1 5 3 3 8 10 9 8 5 8 5 14 12 10 12 17 19 19 24 29 22 15 18 14 12 15 20 21 22 24 23 24 25 24 21 23 27 22 19 15 14 13 11
3 9 5 6 5 4 10 12 5 7 11 10 9 11 8 9 8 21 22 20 19 26 26 19 22 19 17 15 21 23 25 24 24 24 23 21 18 21 19 19 16 17 17 16
4 4 5 1 3 7 4 7 7 9 9 6 7 5 7 9 14 18 19 19 19 21 25 29 27 26 20 19 20 23 23 25 24 24 23 24 22 19 20 20 22 22 23 21
4 6 4 3 8 6 5 13 13 10 7 4 5 3 6 15 10 11 22 20 21 20 14 31 28 30 26 22 19 24 25 25 24 25 26 27 25 22 21 21 23 23 21 18
2 8 6 15 10 6 7 17 14 12 5 4 2 2 6 6 11 12 18 27 20 17 14 16 32 30 30 25 23 23 27 25 26 25 25 22 22 23 23 22 23 22 21 20
6 4 3 5 2 12 1 11 9 3 1 2 6 5 5 4 7 5 7 26 25 19 18 15 13 21 30 27 25 25 26 27 29 27 25 23 24 24 25 24 22 21 21 19
5 5 5 2 2 5 4 7 3 2 3 3 2 3 7 4 4 6 9 10 9 4 20 18 18 17 27 23 21 23 24 25 27 29 29 28 26 26 27 23 18 19 19 18
2 3 6 8 3 4 1 3 4 4 3 3 1 5 4 3 8 11 11 10 8 6 3 3 15 19 20 20 20 20 21 23 23 23 24 24 23 21 21 19 17 18 21 18
3 4 5 1 4 3 2 4 3 5 3 4 3 3 4 3 7 14 17 18 15 8 6 4 3 20 22 22 22 23 23 20 20 21 21 19 19 18 18 16 13 15 17 17
3 5 5 3 3 3 5 3 3 3 3 3 3 3 3 5 8 8 9 11 12 11 9 6 3 3 12 16 19 19 22 22 22 20 18 14 11 14 15 14 15 17 16 17
3 3 1 2 5 4 5 2 3 4 3 3 2 4 5 10 9 9 6 4 5 7 9 12 9 4 12 18 22 23 23 24 25 23 22 20 19 23 19 15 16 17 19 21
2 4 3 2 5 4 0 1 1 3 3 1 3 3 3 7 8 13 9 4 2 3 7 10 12 13 11 12 18 21 24 26 27 26 26 23 23 23 23 24 31 28 25 24
3 2 3 3 5 2 2 2 1 2 2 2 4 3 2 7 5 3 8 13 11 7 7 8 11 12 14 13 14 16 20 24 25 25 25 24 22 20 19 20 20 19 21 24
3 3 5 5 3 5 4 4 4 4 2 1 4 2 4 7 8 12 13 12 10 12 13 14 16 16 18 14 15 15 17 20 23 24 24 23 21 20 18 17 17 19 21 22
3 3 3 3 4 3 2 5 7 6 5 5 3 2 5 3 5 6 10 14 12 12 14 16 18 17 16 21 17 16 16 18 21 23 23 23 20 18 18 18 19 20 21 21
3 1 2 3 3 3 1 3 4 7 4 5 4 5 4 8 7 14 17 13 16 18 20 21 22 21 20 17 28 22 18 19 20 22 22 21 21 20 20 20 20 20 21 20
3 4 3 2 3 3 4 5 4 1 2 7 7 2 2 6 10 14 12 18 19 20 22 24 24 28 24 19 17 30 24 20 23 24 24 24 23 22 21 21 21 21 19 17
4 3 2 2 2 1 4 1 2 8 6 7 8 4 6 7 15 3 10 19 23 24 25 26 27 29 29 21 20 20 31 24 23 25 25 25 24 23 22 21 21 19 17 15
3 4 2 3 2 2 2 1 2 1 2 5 4 6 13 20 16 9 15 26 29 27 28 26 26 29 32 24 18 18 25 29 24 24 26 26 25 23 21 21 20 18 16 15
2 3 3 2 2 3 1 3 6 3 1 8 11 10 13 16 5 3 27 33 33 30 29 26 26 26 31 23 19 19 23 29 26 25 24 25 24 22 21 20 19 17 15 14
1 2 3 1 1 1 3 10 5 3 2 10 13 13 13 4 8 25 29 31 28 28 30 24 24 23 30 23 17 14 18 28 26 22 23 24 24 22 21 19 18 15 15 14
5 4 3 1 2 3 7 3 1 4 5 7 10 12 15 15 17 22 27 27 28 30 30 22 24 24 29 21 15 12 18 21 22 23 23 23 22 23 22 18 16 14 16 16
2 3 4 3 4 4 7 19 12 7 3 7 9 9 14 18 21 21 23 25 26 27 26 22 22 26 26 20 17 18 18 19 20 20 21 21 22 22 20 17 16 16 18 18
1 2 3 4 3 9 18 12 8 7 7 6 9 13 13 16 18 21 22 23 24 24 24 23 26 25 24 19 16 14 14 14 16 17 19 21 22 20 19 17 16 17 19 18
3 4 4 3 3 17 9 7 5 5 6 7 10 9 10 12 15 18 20 21 23 23 23 23 23 23 21 19 17 15 14 13 15 16 18 20 20 19 17 17 16 17 17 17
5 5 4 4 9 2 2 3 2 8 9 11 12 13 12 11 13 15 17 20 22 22 23 23 22 22 20 18 16 15 16 16 16 17 18 20 19 19 18 18 17 17 17 17
Wind_Direction
50 101 239 222 139 110 115 115 145 164 152 211 198 225 252 258 226 223 242 232 231 227 216 219 229 212 208 216 214 212 205 208 208 212 215 214 214 214 221 211 212 222 229 230
128 219 277 313 298 167 157 137 144 127 171 207 180 221 241 251 243 216 226 233 237 235 230 226 220 218 213 216 218 217 219 218 214 213 214 216 211 211 211 207 211 218 218 218
150 140 205 82 283 224 144 162 169 137 170 201 158 287 263 262 237 250 244 237 231 234 234 231 222 228 223 217 221 220 220 224 220 216 212 215 216 212 210 208 218 225 234 234
80 155 120 255 226 173 172 203 163 128 145 163 152 236 231 230 238 237 252 250 241 234 270 231 222 227 221 220 225 226 225 225 225 224 220 217 219 219 217 214 223 225 235 245
147 123 153 151 169 155 248 164 155 142 212 111 109 42 264 152 216 228 237 242 235 223 236 233 227 238 234 221 226 229 227 229 229 231 229 226 229 229 226 220 225 235 243 248
55 56 14 7 95 181 120 81 49 46 296 61 198 160 290 205 202 196 201 234 230 226 228 232 227 224 223 215 216 221 227 226 226 225 225 223 228 225 237 230 229 238 247 250
43 334 312 192 91 50 113 97 99 52 42 182 201 118 242 309 95 134 138 98 111 176 239 230 226 214 213 218 222 223 224 227 231 227 223 222 221 228 233 236 239 244 243 252
93 100 343 349 29 177 117 115 140 133 155 209 336 189 259 167 106 89 79 83 78 60 57 128 217 210 212 221 229 232 229 226 225 227 229 230 229 226 224 221 230 246 251 258
114 60 311 296 329 30 318 50 183 99 44 79 227 260 28 100 73 80 72 64 52 46 45 30 305 218 220 233 239 240 234 230 229 224 222 226 233 234 231 232 239 245 258 268
124 97 322 324 336 21 93 186 56 15 107 169 245 187 215 129 118 91 71 70 60 45 32 1 305 250 223 235 244 244 242 238 228 225 228 226 235 240 243 257 259 259 271 283
128 101 276 31 14 13 14 20 44 115 135 155 139 288 221 159 135 122 135 107 109 76 43 24 5 293 247 247 245 248 246 238 229 228 223 224 239 235 240 259 261 269 278 285
44 102 75 94 298 308 171 286 86 111 294 44 125 274 350 123 130 143 169 95 95 78 27 354 337 327 300 262 254 252 247 240 235 237 239 233 228 230 235 248 261 268 274 282
353 78 90 26 342 342 282 238 17 44 61 188 122 251 157 136 122 47 43 40 34 6 319 324 335 323 316 300 275 260 251 246 244 242 238 237 238 240 240 246 253 267 278 283
27 121 154 176 209 151 182 201 188 115 111 212 204 129 25 24 58 55 50 39 23 12 7 3 357 316 306 298 300 273 256 244 240 239 236 233 233 234 240 250 265 275 281 285
76 108 82 82 62 88 137 190 194 183 189 157 227 204 100 107 111 74 41 20 26 15 357 347 336 337 302 278 280 283 257 242 235 230 229 230 233 240 251 261 273 281 284 283
33 75 87 344 37 48 351 271 233 210 186 237 242 274 72 54 34 24 22 36 16 2 350 343 338 330 312 321 273 276 274 248 236 232 232 235 239 245 254 264 272 278 279 277
102 118 80 250 358 22 324 244 265 198 111 201 220 94 27 22 3 5 40 25 9 356 344 335 332 330 320 299 313 261 269 263 244 236 236 238 242 249 259 267 272 277 273 266
100 97 105 187 45 46 253 355 66 102 54 48 73 65 48 358 336 63 39 11 355 346 339 331 327 326 324 302 278 281 254 255 253 245 242 243 244 249 255 263 272 270 260 257
112 132 111 122 185 215 295 24 70 114 46 18 63 24 7 353 336 159 356 344 339 333 326 324 323 325 322 305 275 272 248 244 249 250 247 246 247 253 260 268 274 269 256 249
21 91 113 141 149 213 324 0 359 53 335 20 30 21 7 358 347 278 325 325 325 327 324 322 321 325 325 311 289 269 242 240 250 256 254 249 249 253 258 265 266 263 249 246
82 19 152 264 232 40 328 313 335 138 229 26 28 7 350 327 289 305 314 317 321 325 327 323 322 327 329 318 305 267 246 244 253 252 254 248 246 252 258 263 257 263 241 236
159 146 207 110 154 239 325 42 163 164 73 19 349 337 325 317 317 318 320 324 326 328 332 333 332 332 331 319 307 281 254 249 247 251 249 242 245 250 255 253 246 249 232 232
164 179 153 152 192 168 81 111 102 86 55 353 343 340 326 322 317 319 319 321 323 324 334 339 331 327 329 316 305 277 271 262 254 244 239 241 245 250 252 245 240 235 232 233
110 118 140 131 302 126 119 97 61 17 10 348 322 318 324 321 324 325 328 329 330 329 328 335 328 322 324 318 306 294 269 261 255 249 244 245 248 252 246 240 239 238 237 237
183 136 156 87 77 128 106 60 32 43 7 3 353 342 324 314 318 323 325 331 333 329 328 326 327 328 321 321 306 297 275 264 262 257 251 250 251 249 242 242 241 245 249 247
188 178 163 218 165 167 161 356 10 357 353 353 343 343 350 335 315 313 320 314 316 323 325 319 320 325 322 319 304 295 283 266 264 258 253 253 253 250 246 241 240 242 241 237
Height
1481 1482 1480 1475 1475 1476 1482 1493 1498 1502 1503 1516 1514 1510 1505 1502 1503 1504 1505 1507 1511 1511 1515 1518 1520 1521 1524 1526 1530 1532 1533 1535 1539 1540 1542 1543 1547 1550 1553 1555 1557 1558 1559 1560
1483 1479 1480 1477 1476 1476 1480 1488 1493 1495 1503 1509 1506 1506 1502 1501 1502 1501 1503 1504 1505 1508 1512 1515 1516 1518 1519 1522 1525 1529 1530 1533 1535 1537 1539 1541 1544 1546 1550 1553 1554 1554 1556 1557
1475 1471 1481 1477 1479 1478 1484 1486 1486 1491 1498 1503 1503 1509 1504 1497 1499 1500 1501 1499 1500 1503 1506 1509 1512 1513 1516 1518 1521 1523 1526 1529 1531 1532 1535 1538 1541 1543 1546 1548 1549 1550 1552 1553
1478 1478 1478 1479 1480 1479 1486 1484 1488 1492 1502 1506 1501 1518 1503 1495 1497 1497 1496 1496 1496 1498 1501 1503 1506 1509 1511 1514 1516 1519 1521 1524 1526 1527 1529 1532 1535 1538 1540 1543 1545 1546 1548 1549
1481 1478 1479 1476 1476 1482 1482 1477 1485 1493 1495 1500 1499 1518 1501 1492 1498 1492 1490 1491 1494 1495 1497 1497 1501 1504 1507 1510 1511 1513 1516 1521 1523 1525 1527 1529 1532 1537 1537 1538 1540 1541 1543 1544
1476 1479 1480 1480 1479 1479 1475 1485 1497 1498 1503 1516 1506 1516 1507 1497 1488 1485 1486 1487 1489 1491 1494 1495 1498 1500 1503 1507 1508 1510 1512 1515 1517 1519 1522 1524 1528 1530 1536 1534 1534 1537 1539 1540
1484 1486 1480 1480 1478 1477 1481 1489 1511 1516 1523 1513 1500 1509 1500 1485 1480 1482 1486 1487 1488 1489 1492 1493 1493 1496 1500 1504 1506 1508 1508 1510 1513 1516 1517 1520 1523 1526 1529 1530 1530 1533 1534 1535
1483 1490 1485 1481 1479 1481 1480 1485 1504 1505 1522 1515 1500 1510 1496 1483 1482 1483 1485 1486 1488 1488 1492 1492 1494 1495 1497 1501 1504 1505 1506 1507 1508 1511 1513 1515 1517 1521 1524 1524 1524 1524 1533 1529
1482 1489 1487 1485 1482 1481 1483 1501 1488 1502 1503 1525 1509 1497 1491 1486 1488 1488 1488 1487 1488 1489 1492 1492 1493 1495 1497 1499 1500 1502 1503 1505 1506 1507 1509 1510 1513 1516 1521 1522 1520 1523 1527 1526
1482 1491 1492 1487 1484 1483 1484 1487 1502 1516 1519 1508 1507 1496 1497 1494 1494 1489 1489 1490 1491 1492 1492 1492 1492 1494 1496 1498 1499 1500 1501 1502 1504 1506 1509 1507 1508 1514 1517 1517 1517 1521 1521 1520
1476 1486 1497 1490 1494 1493 1492 1493 1492 1498 1508 1514 1511 1507 1488 1490 1487 1489 1491 1493 1494 1495 1495 1494 1494 1494 1494 1495 1496 1497 1497 1499 1500 1502 1504 1505 1506 1507 1509 1510 1513 1515 1514 1513
1477 1487 1494 1497 1494 1493 1493 1491 1491 1510 1506 1508 1516 1509 1488 1485 1486 1488 1491 1495 1496 1496 1496 1496 1495 1494 1493 1492 1493 1493 1493 1494 1496 1498 1500 1502 1503 1501 1502 1503 1506 1508 1507 1506
1480 1490 1501 1505 1500 1493 1494 1491 1490 1495 1500 1509 1518 1507 1490 1487 1489 1492 1495 1496 1498 1498 1497 1495 1493 1492 1491 1489 1489 1488 1488 1489 1491 1493 1495 1496 1499 1498 1499 1500 1501 1502 1501 1502
1479 1487 1496 1502 1491 1491 1496 1491 1492 1499 1516 1502 1504 1496 1494 1497 1496 1497 1498 1498 1498 1498 1497 1494 1491 1488 1486 1486 1485 1485 1484 1485 1487 1488 1490 1492 1494 1495 1496 1496 1497 1497 1498 1496
1482 1493 1495 1488 1486 1487 1487 1490 1492 1499 1497 1504 1497 1497 1501 1500 1501 1500 1499 1497 1496 1495 1493 1491 1490 1488 1486 1484 1482 1481 1481 1481 1482 1484 1486 1488 1489 1491 1493 1493 1492 1492 1492 1491
1484 1500 1493 1504 1489 1490 1491 1490 1489 1491 1493 1494 1495 1496 1497 1498 1498 1497 1496 1494 1493 1492 1490 1488 1486 1484 1483 1481 1479 1478 1477 1478 1478 1480 1482 1484 1485 1487 1487 1488 1487 1487 1486 1485
1486 1497 1508 1510 1496 1497 1504 1494 1490 1487 1486 1489 1495 1498 1498 1497 1496 1495 1494 1493 1493 1491 1489 1486 1483 1480 1477 1475 1473 1472 1473 1473 1474 1476 1478 1479 1481 1482 1482 1483 1483 1481 1480 1480
1489 1495 1507 1517 1505 1519 1496 1489 1489 1493 1497 1495 1497 1499 1499 1498 1495 1495 1495 1494 1493 1491 1487 1483 1479 1475 1471 1468 1467 1465 1467 1469 1469 1471 1473 1475 1476 1478 1478 1478 1477 1476 1476 1477
1487 1493 1504 1510 1517 1498 1492 1491 1491 1491 1501 1500 1499 1499 1498 1496 1493 1494 1493 1493 1492 1489 1485 1480 1475 1471 1466 1461 1460 1459 1459 1463 1464 1465 1467 1469 1471 1472 1472 1472 1472 1471 1471 1472
1489 1491 1499 1504 1504 1498 1495 1494 1492 1491 1506 1504 1502 1502 1501 1500 1502 1495 1493 1490 1486 1484 1480 1475 1470 1466 1461 1456 1454 1453 1453 1456 1458 1459 1461 1464 1466 1467 1467 1468 1467 1467 1467 1468
1495 1497 1504 1506 1510 1501 1499 1496 1493 1501 1513 1507 1505 1506 1505 1505 1504 1496 1492 1488 1485 1480 1474 1470 1466 1462 1458 1452 1449 1448 1449 1451 1453 1455 1457 1458 1460 1462 1463 1463 1463 1463 1464 1466
1493 1502 1500 1502 1499 1505 1496 1495 1497 1505 1505 1505 1504 1504 1502 1500 1497 1493 1489 1484 1479 1474 1468 1465 1461 1457 1455 1451 1448 1447 1448 1450 1450 1450 1451 1453 1455 1457 1458 1459 1459 1459 1461 1462
1491 1490 1496 1497 1499 1495 1496 1497 1501 1502 1503 1503 1502 1500 1498 1494 1491 1488 1484 1480 1475 1471 1466 1462 1459 1455 1452 1449 1446 1444 1444 1445 1445 1445 1446 1448 1450 1451 1452 1453 1455 1455 1457 1458
1487 1488 1490 1492 1497 1497 1496 1499 1499 1499 1499 1499 1497 1495 1493 1490 1487 1483 1479 1475 1471 1467 1463 1460 1456 1452 1448 1445 1444 1442 1441 1441 1441 1442 1443 1444 1444 1446 1447 1448 1449 1450 1452 1453
1486 1487 1489 1494 1495 1494 1495 1496 1495 1495 1494 1493 1492 1490 1488 1485 1482 1479 1475 1471 1467 1464 1460 1457 1453 1449 1445 1442 1441 1440 1439 1439 1439 1439 1439 1439 1441 1441 1443 1443 1445 1446 1447 1448
1482 1485 1490 1489 1488 1490 1492 1492 1492 1493 1492 1490 1488 1486 1484 1482 1478 1475 1471 1468 1463 1459 1456 1453 1450 1446 1442 1439 1437 1437 1436 1436 1436 1435 1435 1436 1436 1437 1438 1439 1440 1440 1441 1443